Dr. Bill's Marine Weather

Coastal Marine Forecast

       Alabama   Florida   Louisiana   Mississippi

Printer Friendly AL  FL  LA  MS

Data Buoys:   Western Gulf of Mexico    Eastern Gulf of Mexico
**********************************************************************
  Alabama
400 PM CDT WED SEP 02 2015

ALZ051>064-022200-
SOUTHWEST ALABAMA
  
CITY           SKY/WX    TMP DP  RH WIND       PRES   REMARKS
MOBILE         CLOUDY    89  69  51 SW8       30.01F HX  93           
BROOKLEY FIELD FAIR      90  70  51 SW8       30.01F HX  95           
EVERGREEN      PTSUNNY   93  67  42 N5        29.99F HX  96           
**********************************************************************
  Florida
500 PM EDT WED SEP 02 2015

FLZ001>010-012>015-112-114-115-022200-
PANHANDLE FLORIDA
  
CITY           SKY/WX    TMP DP  RH WIND       PRES   REMARKS
PENSACOLA      FAIR      91  68  46 SW12      29.99F HX  95           
PENSACOLA NAS  PTSUNNY   88  69  53 SW13      29.99F                  
CRESTVIEW      FAIR      95  64  35 CALM      29.99F HX  97           
DUKE FIELD     MOSUNNY   96  67  39 SW8       29.97F HX 100           
VALPARAISO     PTSUNNY   93  68  43 SW12      29.98F HX  97           
MARY ESTHER    FAIR      90  69  50 S13       29.98F                  
PANAMA CITY    FAIR      93  70  46 S14       29.96F HX  99           
TYNDALL AFB    FAIR      89  73  59 W14       29.98F HX  97           
APALACHICOLA   FAIR      90  74  59 W13       29.99F HX  99           

STATION/POSITION SKY/WX   TEMP    WIND        PRES    WAVE   SWELL
                          AIR SEA DIR/SP/G            HT/PER HT/PER
                          (F)     (DEG/KT/KT) (MB)    (FT/S) (FT/S)
30.1N   87.6W              85 87  220/  6/  8 1015.9F   1/ 6   2/ 6
29.2N   88.2W              84 87  140/  6/  8 1016.9F   1/ 6   2/ 6
28.8N   86.0W              86 90  290/  2/  2 1016.7F   1/ 4
PANAMA CITY BEAC           85 87  240/ 13/ 14 1015.9F
CAPE SAN BLAS    NOT AVBL
TOWER C                    84     240/ 10/ 11 1015.9F
28.5N   84.5W              86 89  280/  4/  6 1016.2F   1/ 5   2/ 5

**********************************************************************
  Louisiana
400 PM CDT WED SEP 02 2015

LAZ040-048-061>063-065-066-069-022200-
SOUTHEAST LOUISIANA
  
CITY           SKY/WX    TMP DP  RH WIND       PRES   REMARKS
N.O. AUDUBON   NOT AVBL                                               
N.O. INTL ARPT CLOUDY    81  71  71 S5        30.03F                  
N.O. LAKEFRONT PTSUNNY   83  71  67 S7        30.03F                  
N.O. DOWNTOWN* FAIR      82  73  74 S5        30.04F                  
RESERVE*       FAIR      81  73  75 S10       30.03F                  
SLIDELL        FAIR      84  76  76 S7        30.02F                  
BATON ROUGE    FAIR      81  69  67 SE9       30.03F                  
BOOTHVILLE     LGT RAIN  76  72  87 W7        30.04F                  
BELLE CHASSE   CLOUDY    80  75  84 S5        30.03F                  
BOGALUSA*      NOT AVBL                                               
GALLIANO*      FAIR      79  76  92 MISG      30.03F                  
NEW ROADS*     FAIR      85  73  67 SE15      30.02F                  
GONZALES*      FAIR      81  73  76 S3        30.02F                  
HAMMOND*       FAIR      82  66  57 CALM      30.04F                  
HOUMA*         NOT AVBL                                               
PORT FOURCHON* CLEAR     77  73  88 SE7       30.04F                  

**********************************************************************
  Mississippi
400 PM CDT WED SEP 02 2015

MSZ080>082-022200-
COASTAL MISSISSIPPI
  
CITY           SKY/WX    TMP DP  RH WIND       PRES   REMARKS
BAY ST LOUIS   MOSUNNY   84  70  61 S7        30.02F                  
BILOXI         FAIR      86  74  69 SW8       30.02F HX  94           
PASCAGOULA     FAIR      86  73  65 S8        30.02F HX  93           
GULFPORT       FAIR      85  74  69 S7        30.02F HX  92           
About Us | Coastal Marine Forecast | Offshore Marine Forecast
Gulf Coast Tides | Hourly Weather Observations | Weather Radar
Sea Surface Temperatures | Solar/Lunar Data | Hurricane Advisories | Home
     
USA Logo Dr. Bill's Marine Weather
Last date changed: December 9, 2014 4:08 PM
www.gulfmarineweather.com/hourlyweatherobservations.shtml
Contact Us